Regional Weather Roundup
Issued by NWS

Home | Current Version | Previous Version | Text Only | Print | Product List | Glossary On
Versions: 1 2 3 4 5 6 7 8 9 10 11 12 13 14 15 16 17 18 19 20 21 22 23 24 25 26 27 28 29 30 31 32 33 34 35 36 37 38 39 40 41 42 43 44 45 46 47 48 49 50
000
ASUS45 KREV 291510
RWRNV
NEVADA REGIONAL WEATHER ROUNDUP
NATIONAL WEATHER SERVICE RENO NV
700 AM PST THU JAN 29 2015

NOTE: "FAIR" INDICATES FEW OR NO CLOUDS BELOW 12,000 FEET WITH NO
SIGNIFICANT WEATHER AND/OR OBSTRUCTIONS TO VISIBILITY.

NVZ001-003-004-291600-
WESTERN NEVADA

CITY           SKY/WX    TMP DP  RH WIND       PRES   REMARKS
RENO           PTCLDY    31  27  85 CALM      30.28S
CARSON CITY    FAIR      27  25  93 CALM      30.29S
SLIDE MTN        N/A     28  27  93 E14         N/A
PYRAMID LAKE     N/A     41 N/A N/A W3          N/A
FALLON         MOCLDY    38  35  89 SW3       30.27R
LOVELOCK       MOCLDY    38  33  82 N6        30.27S
HAWTHORNE      CLEAR     36  32  87 CALM      30.28R
$$

NVZ002-CAZ072-073-291600-
NORTHERN AND CENTRAL SIERRA

CITY           SKY/WX    TMP DP  RH WIND       PRES   REMARKS
S. LAKE TAHOE  CLEAR     25  20  81 CALM      30.25R
TRUCKEE        PTCLDY    19  19 100 CALM      30.27S
SQUAW VLY 8000   N/A     30  30 100 CALM        N/A
SUSANVILLE     CLEAR     28  27  93 CALM      30.28
BLUE CANYON    CLEAR     44  27  51 NE7       30.21S
MAMMOTH LAKES  MOCLDY    25  23  93 CALM      30.29R
BRIDGEPORT     FAIR      22  18  85 CALM      30.26R
$$

NVZ030-031-036-291600-
NORTHERN NEVADA

CITY           SKY/WX    TMP DP  RH WIND       PRES   REMARKS
ELKO           PTCLDY    25  23  92 CALM      30.31R
WINNEMUCCA     MOCLDY    35  31  85 NE9       30.29S
WENDOVER       CLOUDY    34  28  80 CALM      30.36R
$$

NVZ035-037-291600-
CENTRAL NEVADA

CITY           SKY/WX    TMP DP  RH WIND       PRES   REMARKS
ELY            MOCLDY    24  23  96 S7        30.33R
EUREKA           N/A     28  24  85 S5        30.30S
$$

NVZ013-014-291600-
SOUTH CENTRAL NEVADA

CITY           SKY/WX    TMP DP  RH WIND       PRES   REMARKS
TONOPAH        CLOUDY    40  33  76 N9        30.26R
$$

NVZ017-020-022-291600-
SOUTHERN NEVADA

CITY           SKY/WX    TMP DP  RH WIND       PRES   REMARKS
LAS VEGAS      CLOUDY    54  44  69 S8        30.14R
N. LAS VEGAS   CLOUDY    56  37  49 NW8       30.17R
NELLIS AFB     CLOUDY    54  44  67 S2        30.17R
HENDERSON      CLOUDY    50  44  80 SE5       30.20R
MERCURY        CLOUDY    51  36  56 NE12      30.19R
$$


USA.gov is the U.S. government's official web portal to all federal, state and local government web resources and services.